Regional Weather Roundup
Issued by NWS

Home | Current Version | Previous Version | Text Only | Print | Product List | Glossary On
Versions: 1 2 3 4 5 6 7 8 9 10 11 12 13 14 15 16 17 18 19 20 21 22 23 24 25 26 27 28 29 30 31 32 33 34 35 36 37 38 39 40 41 42 43 44 45 46 47 48 49 50
000
ASHW40 PHFO 240510
RWRHI

WEATHER ROUNDUP FOR HAWAII
NATIONAL WEATHER SERVICE HONOLULU HI
700 PM HST TUE SEP 23 2014

THIS IS AN AUTOMATED REPORT THAT HAS NOT BEEN QUALITY CONTROLLED.

NOTE..."FAIR" INDICATES FEW OR NO CLOUDS BELOW 12,000 FEET WITH NO
SIGNIFICANT WEATHER AND/OR OBSTRUCTIONS TO VISIBILITY.

* - THESE SITES REPORT LIMITED FIELDS

HIZ001>004-240600-
KAUAI-NIIHAU-

CITY           SKY/WX    TMP DP  RH WIND       PRES   REMARKS
LIHUE APT      PTCLDY    81  72  74 NE14      30.04S
PORT ALLEN*      N/A     82 N/A N/A E13         N/A
POIPU*           N/A     81 N/A N/A NE6G16      N/A
PRINCEVILLE*   NOT AVBL
KOKOLE POINT*  NOT AVBL
MOLOAA DAIRY*  NOT AVBL
WAIMEA HTS*    NOT AVBL
PUU OPAE*      NOT AVBL
PUU LUA*       NOT AVBL
MAKAHA RIDGE*  NOT AVBL
$$

HIZ005>011-240600-
OAHU-

CITY           SKY/WX    TMP DP  RH WIND       PRES   REMARKS
HONOLULU       PTCLDY    82  67  60 NE16      30.01R
KALAELOA       CLEAR     81  67  62 VRB6      30.02R
KANEOHE MCB    PTCLDY   N/A N/A N/A E9G16     30.03R
WHEELER FIELD  FAIR      78  67  69 SE2       30.04
BELLOWS*       NOT AVBL
KAHUKU*        NOT AVBL
WHEELER*       NOT AVBL
WAIANAE HARBOR NOT AVBL
DILLINGHAM*      N/A     81  64  57 NE5G15      N/A
KAHUKU TRN*      N/A     77  68  73 E12G18      N/A
KAWAILOA*      NOT AVBL
KII*             N/A     81  72  74 E15         N/A
MAKUA RANGE*     N/A     82  61  47 E3G16       N/A
OAHU FOREST NW NOT AVBL
SCHOFIELD BRK*   N/A     75  64  69 MISG        N/A
SCHOFIELD S*   NOT AVBL
WAIANAE VLY*   NOT AVBL
KUAOKALA*      NOT AVBL
HONOULIUULI*   NOT AVBL
MOKUOLOE IS*     N/A    N/A N/A N/A MISG        N/A
PALEHUA*       NOT AVBL
WAIAWA PHB*    NOT AVBL
$$

HIZ012>013-240600-
MOLOKAI-

CITY           SKY/WX    TMP DP  RH WIND       PRES   REMARKS
MOLOKAI AIRPT  PTCLDY    78  74  87 NE12G18   30.03S
KALAUPAPA      NOT AVBL
MAKAPULAPAI*   NOT AVBL
MOLOKAI 1*     NOT AVBL
PUU ALII*      NOT AVBL
$$

HIZ016-240600-
KAHOOLAWE-

CITY           SKY/WX    TMP DP  RH WIND       PRES   REMARKS
KAHOOLAWE*     NOT AVBL
HAKIOAWA*      NOT AVBL
HONOKANAIA*      N/A     82  70  66 NE14G29   30.02
KANELOA*         N/A     79  70  73 E18G33    29.22S
KEALIALALO*    NOT AVBL
LUA MAKIKA*    NOT AVBL
$$

HIZ014>015-240600-
LANAI-

CITY           SKY/WX    TMP DP  RH WIND       PRES   REMARKS
LANAI CITY     FAIR      75  70  85 NE17      30.06S
LANAI 1*       NOT AVBL
$$

HIZ017>028-240600-
MAUI-

CITY           SKY/WX    TMP DP  RH WIND       PRES   REMARKS
KAHULUI        PTCLDY    80  70  71 NE16G26   30.00S
KAPALUA-W MAUI NOT AVBL
HANA AIRPORT   NOT AVBL
HANA*          NOT AVBL
HALEAKALA SUMM   N/A     50   1  13 E29         N/A
MAALAEA BAY*   NOT AVBL
HALEAKALA*     NOT AVBL
KAUPO GAP*     NOT AVBL
KULA 1*          N/A     54  51  89 E3          N/A
$$

HIZ023>026-240600-
BIG ISLAND OF HAWAII COAST AND LOWER SLOPES-

CITY           SKY/WX    TMP DP  RH WIND       PRES   REMARKS
KAILUA KONA    PTCLDY    83  71  67 S3        29.98R
HILO           PTCLDY    78  69  73 E3        30.04R
HONOKAA*       NOT AVBL
KAWAIHAE MWT*  NOT AVBL
KAWAIHAE*        N/A     82 N/A N/A SE3         N/A
SOUTH POINT*   NOT AVBL
UPOLU AIRPORT* NOT AVBL
KAMUELA*       NOT AVBL
HAKALAU*         N/A    N/A N/A N/A SW5G10      N/A
KALOKO-HONOKO* NOT AVBL
PALI 2*          N/A     70  63  78 N12G18      N/A
KEALAKOMO*       N/A     82  68  61 NE16G22     N/A
KAUPULEHU*     NOT AVBL
KAPAPALA*        N/A     70  65  85 NW3         N/A
LOWER KAHUKU*  NOT AVBL
PUHE CS*       NOT AVBL
PUHO CS*       NOT AVBL
PTA KEAMUKU*     N/A     64  59  82 NE6G16      N/A
WAIKOLOA*      NOT AVBL
$$

HIZ027>028-240600-
BIG ISLAND OF HAWAII INTERIOR AND SUMMMITS-

CITY           SKY/WX    TMP DP  RH WIND       PRES   REMARKS
BRADSHAW FIELD NOT AVBL
MK VISITOR CEN NOT AVBL
MAUNA KEA*       N/A     34 -11  14 SE31        N/A  WCI  20
MAUNA LOA*     NOT AVBL
MAUNA LOA 1*   NOT AVBL
PTA KIPUKA*      N/A     61  57  88 W3G15       N/A
PTA RANGE 17*    N/A     64  37  36 NE9G26      N/A
PTA WEST*        N/A     64  59  82 W5G12       N/A
NENE CABIN*    NOT AVBL
AHUMOA*        NOT AVBL
PTA PORTABLE*  NOT AVBL
PUU MALI*      NOT AVBL
$$

HIC003-240600-
NORTHWEST ISLANDS-

CITY           SKY/WX    TMP DP  RH WIND       PRES   REMARKS
MIDWAY ISLAND  CLEAR     84  73  70 E12       30.09R HX  91
MIDWAY NOS*    NOT AVBL
FRENCH FRIGATE NOT AVBL
$$

PHZ110>124-180-240600-
BUOY REPORTS

STATION/POSITION TIME  TEMP    WIND        PRES    WAVE   SWELL
                       AIR SEA DIR/SP/G            HT/PER HT/DIR
                 (UTC) (F)     (DEG/KT/KT) (MB)    (FT/S) (FT/D)
BUOY 51001       NOT AVBL
BUOY 51101       NOT AVBL
BUOY 51100       0500   80 82   50/ 10/ 12 1017.6R
BUOY 51003       0400   82 83   70/ 16/ 19 1014.6R   7/ 7   3
BUOY 51004       0442   81 81   60/ 16/ 19 1015.0R   6/ 8   3/120
BARBERS PT BUOY  NOT AVBL
WAIMEA BAY BUOY  0400      83                N/A     3/ 7
KAILUA BAY BUOY  0500      82                N/A     5/ 5   2/360
LANAI BUOY       NOT AVBL
BARBERS PT 2     0400      83                N/A     5/ 8   2/230
PAUWELA MAUI     0500      81                N/A     5/ 4
HILO             0500      82                N/A     5/ 9   2/100
KANEOHE BAY BUOY NOT AVBL
HANALEI KAUAI    NOT AVBL
KAHULUI HARBOR   0500   81 83   50/ 15/ 22 1015.8S
HONOLULU HARBOR  0500   82      60/  4/  9 1016.4R
KILO NALU        NOT AVBL
HILO HARBOR      0500   81      90/  3/  5 1016.6R
MOKUOLOE         0500   81 86   70/  8/ 10 1017.0S
NAWILIWILI       0500      85                N/A
WHOTS BUOY       NOT AVBL
BUOY 51028       NOT AVBL
$$

......................KEY........................................
  SKY/WX - SKY CONDITIONS/PRESENT WEATHER
  TMP    - TEMPERATURE IN FAHRENHEIT
  DWPT   - DEWPOINT IN FAHRENHEIT
  RH     - RELATIVE HUMIDITY IN PERCENT
  WIND   - DIRECTION AND SPEED /MPH FOR ISLANDS...KTS FOR BUOYS/
  PRES   - MEAN SEA LEVEL PRESSURE IN INCHES OF HG
  VSB    - VISIBILITY IN MILES
  HX     - HEAT INDEX
  WCI    - WIND CHILL INDEX
  VRB    - VARIABLE WIND DIRECTION
  N/A    - NOT AVAILABLE



USA.gov is the U.S. government's official web portal to all federal, state and local government web resources and services.